STARLINK-35643, 66456

Orbit data source: Space-Track

STARLINK-35643, 66456 is a payload satellite owned by SpaceX/Seattle (US) in LEO that was launched on Sat, 15 Nov 2025 UTC via an FALCON 9 launch vehicle from the Air Force Eastern Test Range (AFETR). Payload-class satellites include a variety of spacecraft equipped with specific instruments for various scientific and technological missions. These include communications satellites like Starlink; space stations such as the ISS; scientific satellites like the Hubble; Earth observation satellites from companies like Planet Labs, Umbra, and HawkEye 360; GPS; miniature CubeSats for education and research; and military/defense satellites.

Loading next visibility...
Identifier
66456, 2025-262A
Orbit
LEO
Country
Flag of USUS
Related business
Manufacturer
SpaceX/Seattle
Mission
Operational Commercial Communications
Bus & Motor
STARLINK V2MO, Unknown motor
Mass
575 kg wet, ~530 kg dry
Launch date (UTC)
2025-11-15 (7 months ago)
Launch vehicle
FALCON 9
Launch site
Air Force Eastern Test Range (AFETR)
Object type
Payload
Rocket body
Debris
Shape & HBR
Box + 2 Pan, 17.7 m
Radar Cross Section
36.964 m², Large (>1 m²)

Expand to show TLE details & history
Last TLE update: 17 hours ago

TLE from 17 hours ago
0 STARLINK-35643
1 66456U 25262A   26171.15635951  .00013323  00000-0  49253-3 0  9994
2 66456  43.0007  77.8194 0001433 271.6148  88.4540 15.27597817 34579
Epoch: 2026-06-20T03:45Z
TLE epoch observation values (Epoch: 2026-06-20T03:45:09.461Z)
Latitude
0.00001°
Longitude
113.15496°
Altitude
482.745 km
Speed
7.626 km/s
True Right ascension
05h 11m 16s
True Declination
0° 00' 00"
Sunlit
Object was in daylight at epoch
Visualization orbit readout
Latitude
Unknown
Longitude
Unknown
Altitude
Unknown
Speed
Unknown
Apparent Right ascension
Unknown
Apparent Declination
Unknown
Sunlit
N/A
Visualization observer readout
Local Sidereal Time
07:17:39
Azimuth
Unknown
Elevation
Unknown
Doppler factor
Unknown
Orbital elements
Apogee altitude
485.924 km
Perigee altitude
483.957 km
Semi-major axis
6,863.078 km
Eccentricity
0.00014
Inclination
43.0007°
RAAN
77.8194°
Arg. of periapsis
271.6148°
True anomaly
88.47042°
Mean anomaly
88.454°
Eccentric anomaly
88.46221°
Mean motion
3.81737 °/min
Orbital period
94.31 mins
BSTAR
0.00049253
Loading maneuver chart data...
Computing Atmospheric mass density...
Loading historical data...
Loading historical data...
Loading historical data...
Loading historical data...
Loading historical data...
Loading historical data...
Loading historical data...

Documentation

Showing up to 5 results
|